User: anonymous   Login
Location: Newark
(44.2003°N, 3.2583°E)
Time: 03:50:08
(UTC+00:00)
Language:

Tiros 1 - Orbit

View from above orbital plane
View from above orbital plane
View from above satellite
View from above satellite

Ground track
Ground track

The orbit data is extracted from the following two-line orbital elements,

1    29U 60002B   19289.40171901 -.00000112  00000-0  14338-4 0  9999
2    29  48.3812  25.0632 0024619 263.9621  95.8485 14.74322803182495
Epoch (UTC): 16 October 2019 09:38:28
Eccentricity: 0.0024619
inclination: 48.3812°
perigee height: 630 km
apogee height: 664 km
right ascension of ascending node: 25.0632°
argument of perigee: 263.9621°
revolutions per day: 14.74322803
mean anomaly at epoch: 95.8485°
orbit number at epoch: 18249

The dashed part of the orbit path shows where the satellite is in the earth's shadow,  

DLR